Regional Weather Roundup
Issued by NWS

Home | Current Version | Previous Version | Graphics & Text | Print | Product List | Glossary On
Versions: 1 2 3 4 5 6 7 8 9 10 11 12 13 14 15 16 17 18 19 20 21 22 23 24 25 26 27 28 29 30 31 32 33 34 35 36 37 38 39 40 41 42 43 44 45 46 47 48 49 50
000
ASUS43 KBIS 251610
RWRND

NORTH DAKOTA REGIONAL WEATHER ROUNDUP
NATIONAL WEATHER SERVICE BISMARCK ND
1100 AM CDT FRI JUL 25 2014

NOTE: "FAIR" INDICATES FEW OR NO CLOUDS BELOW 12,000 FEET WITH NO
SIGNIFICANT WEATHER AND/OR OBSTRUCTIONS TO VISIBILITY.


NDZ001>003-009>011-017-251700-
NORTHWEST NORTH DAKOTA

CITY           SKY/WX    TMP DP  RH WIND       PRES   REMARKS
WILLISTON      SUNNY     71  46  40 SW9G22    29.86F
MINOT          SUNNY     72  51  47 SW14      29.83S
MINOT AFB      SUNNY     71  57  60 W12       29.82F
$$

NDZ018>021-031>035-040>046-251700-
SOUTHWEST NORTH DAKOTA

CITY           SKY/WX    TMP DP  RH WIND       PRES   REMARKS
BISMARCK       SUNNY     76  46  34 NW21      29.85S
DICKINSON      SUNNY     70  46  42 W9        29.93R
GARRISON         N/A     72  52  49 W8        29.86F
HETTINGER ARPT SUNNY     72  44  36 NW12      29.96F
$$

NDZ004>008-012>016-024-026-027-054-251700-
NORTHEAST NORTH DAKOTA

CITY           SKY/WX    TMP DP  RH WIND       PRES   REMARKS
GRAND FORKS    CLOUDY    72  64  76 W3        29.75F
GRND FRKS AFB  CLOUDY    74  68  81 SW6       29.77S
DEVILS LAKE    PTSUNNY   72  63  73 NW17      29.78R
$$

NDZ022-023-025-028>030-036>039-047>053-251700-
SOUTHEAST NORTH DAKOTA

CITY           SKY/WX    TMP DP  RH WIND       PRES   REMARKS
FARGO          CLOUDY    71  64  78 W6        29.77S
JAMESTOWN      CLOUDY    71  65  81 N8        29.79S
$$



USA.gov is the U.S. government's official web portal to all federal, state and local government web resources and services.